Location: Cerroniocc
(13.7547°S, 72.0222°W)
Time: 20:01:54
(UTC+00:00)

Cosmos 2322 Rocket - Pass Details

Date: 05 July 2020
Orbit: 832 x 851 km, 71.0° (Epoch: 11 August)

Event Time Altitude Azimuth Distance (km) Brightness Sun altitude
Rises 22:57:46 0° 187° (S) 3,403 5.2 -6.4°
Reaches altitude 10° 23:00:19 10° 181° (S) 2,461 4.4 -6.9°
Maximum altitude 23:05:44 47° 108° (ESE) 1,094 2.4 -8.2°
Drops below altitude 10° 23:11:04 10° 34° (NE) 2,432 4.5 -9.4°
Sets 23:13:34 0° 29° (NNE) 3,360 5.2 -9.9°
